Powrót do katalogu

ONEWEB-0337

AktywnyŁącznośćPO
NORAD 49203·PAYLOAD·🇬🇧 United Kingdom

Wystrzelony Sep 14, 2021 z Baikonur Cosmodrome

Loading…

Następne Przeloty (najbliższe 24 godziny)

TLE

ŚwieżeSource: CelesTrak SupGP

Epoka: Sep 14, 2026, 22:29 UTC

1 49203C 21083T   26257.93731898  .00001024  00000+0  28076-2 0  2570
2 49203  87.8918 302.3760 0001767 100.9280 295.1411 13.13468101    15

Śledź ONEWEB-0337 w czasie rzeczywistym z AllMySat

Download on the App Store